Simultaneous Nadir Overpasses (SNOs) Predictions

Prediction of SNOs between AQUA and NPP Satellite Orbit:

Table of predicted SNOs for the next 14.0 days since TLE Epoch: 3/25/2012
Index Date (AQUA) Time (AQUA) Lat,Lon (AQUA) SZA (AQUA ) Date (NPP) Time (NPP) Lat,Lon (NPP) SZA (NPP ) Distance(km) Time Diff (sec)
1 03/26/2012 06:21:49 -76.50, 145.24 85.45 03/26/2012 06:20:43 -76.49, 145.18 85.38 1.52 66
2 03/26/2012 07:10:54 77.47, -43.51 93.38 03/26/2012 07:11:05 77.47, -43.51 93.37 0.06 11
3 03/28/2012 22:38:10 -77.08, -96.82 87.21 03/28/2012 22:37:24 -77.08, -96.72 87.19 2.58 46
4 03/28/2012 23:27:24 77.61, 72.97 92.13 03/28/2012 23:27:56 77.61, 72.92 92.11 1.29 32
5 03/31/2012 14:54:38 -77.30, 19.92 88.54 03/31/2012 14:54:13 -77.31, 20.00 88.54 2.16 25
6 03/31/2012 15:43:52 77.83,-170.22 90.80 03/31/2012 15:44:45 77.82,-170.27 90.77 1.27 53
7 04/03/2012 06:27:15 59.15, -58.96 109.11 04/03/2012 06:26:03 59.41, -60.60 109.52 97.90 72
8 04/03/2012 07:11:12 -77.23, 135.50 89.49 04/03/2012 07:11:09 -77.22, 135.39 89.47 2.87 3
9 04/03/2012 08:00:03 78.75, -49.80 88.55 04/03/2012 08:01:17 78.69, -49.70 88.49 6.62 74
10 04/05/2012 22:38:22 76.91, 82.56 89.86 04/05/2012 22:37:23 76.92, 82.60 89.90 1.12 59




NCC Satellite Simultaneous Nadir Overpasses (SNOs) Prediction Service
